TimeEST,TemperatureF,Dew PointF,Humidity,Sea Level PressureIn,VisibilityMPH,Wind Direction,Wind SpeedMPH,Gust SpeedMPH,PrecipitationIn,Events,Conditions,WindDirDegrees,DateUTC
12:53 AM,62.1,60.1,93,30.16,10.0,NE,4.6,-,N/A,,Clear,40,2013-01-08 05:53:00
1:53 AM,61.0,59.0,93,30.15,10.0,NE,4.6,-,N/A,,Clear,50,2013-01-08 06:53:00
2:53 AM,62.1,61.0,96,30.14,10.0,ENE,5.8,-,N/A,,Partly Cloudy,60,2013-01-08 07:53:00
3:15 AM,62.6,60.8,94,30.14,10.0,NE,5.8,-,N/A,,Mostly Cloudy,50,2013-01-08 08:15:00
3:44 AM,62.6,62.6,100,30.13,10.0,NE,5.8,-,N/A,,Scattered Clouds,40,2013-01-08 08:44:00
3:53 AM,63.0,61.0,93,30.14,10.0,NNE,5.8,-,N/A,,Partly Cloudy,30,2013-01-08 08:53:00
4:18 AM,62.6,60.8,94,30.13,10.0,NE,5.8,-,N/A,,Mostly Cloudy,40,2013-01-08 09:18:00
4:41 AM,64.4,62.6,94,30.13,8.0,NE,8.1,-,N/A,,Overcast,40,2013-01-08 09:41:00
4:53 AM,64.0,63.0,96,30.14,6.0,NE,6.9,-,N/A,,Overcast,50,2013-01-08 09:53:00
5:38 AM,64.4,62.6,94,30.15,1.8,NE,5.8,-,N/A,,Overcast,50,2013-01-08 10:38:00
5:53 AM,64.0,63.0,96,30.15,1.8,NE,5.8,-,N/A,,Overcast,50,2013-01-08 10:53:00
5:57 AM,64.4,62.6,94,30.15,3.0,NE,5.8,-,N/A,,Overcast,50,2013-01-08 10:57:00
6:45 AM,64.4,62.6,94,30.16,1.5,ENE,9.2,-,N/A,,Overcast,70,2013-01-08 11:45:00
7:53 AM,64.0,64.0,100,30.20,0.8,ENE,5.8,-,N/A,,Overcast,70,2013-01-08 12:53:00
9:46 AM,66.2,66.2,100,30.23,1.2,ENE,6.9,-,N/A,,Overcast,70,2013-01-08 14:46:00
9:53 AM,66.9,66.0,97,30.23,1.0,East,5.8,-,N/A,,Overcast,80,2013-01-08 14:53:00
10:00 AM,68.0,66.2,94,30.23,8.0,East,6.9,-,N/A,,Overcast,100,2013-01-08 15:00:00
10:17 AM,69.8,68.0,94,30.23,10.0,ESE,5.8,-,N/A,,Overcast,110,2013-01-08 15:17:00
10:48 AM,73.4,68.0,83,30.22,10.0,East,6.9,-,N/A,,Scattered Clouds,90,2013-01-08 15:48:00
10:53 AM,75.0,68.0,79,30.22,10.0,ESE,8.1,-,N/A,,Scattered Clouds,110,2013-01-08 15:53:00
11:53 AM,80.1,68.0,67,30.19,10.0,Variable,5.8,-,N/A,,Scattered Clouds,0,2013-01-08 16:53:00
12:53 PM,82.0,66.0,58,30.17,10.0,East,8.1,-,N/A,,Scattered Clouds,100,2013-01-08 17:53:00
1:53 PM,82.9,64.9,54,30.15,10.0,East,6.9,-,N/A,,Partly Cloudy,100,2013-01-08 18:53:00
2:53 PM,82.9,64.9,54,30.13,10.0,ESE,8.1,-,N/A,,Mostly Cloudy,120,2013-01-08 19:53:00
3:53 PM,84.0,66.0,55,30.13,10.0,East,8.1,-,N/A,,Scattered Clouds,100,2013-01-08 20:53:00
4:53 PM,82.0,66.0,58,30.14,10.0,East,8.1,-,N/A,,Clear,100,2013-01-08 21:53:00
5:53 PM,78.1,66.0,66,30.15,10.0,East,8.1,-,N/A,,Partly Cloudy,100,2013-01-08 22:53:00
6:53 PM,75.9,68.0,76,30.16,10.0,East,8.1,-,0.00,Rain,Light Rain,90,2013-01-08 23:53:00
7:53 PM,75.0,66.9,76,30.17,10.0,East,9.2,-,0.00,,Scattered Clouds,90,2013-01-09 00:53:00
8:53 PM,73.0,68.0,84,30.17,10.0,East,5.8,-,N/A,,Mostly Cloudy,90,2013-01-09 01:53:00
9:53 PM,73.0,69.1,87,30.18,10.0,East,5.8,-,N/A,,Overcast,90,2013-01-09 02:53:00
10:53 PM,72.0,69.1,91,30.19,10.0,East,5.8,-,N/A,,Overcast,100,2013-01-09 03:53:00